Year,Month,Day,Hour,Minute,Value (Times are PST for temperature in C)
2019,04,25,00,00,5.50
2019,04,25,00,01,5.40
2019,04,25,00,02,5.40
2019,04,25,00,03,5.40
2019,04,25,00,04,5.40
2019,04,25,00,05,5.40
2019,04,25,00,06,5.40
2019,04,25,00,07,5.40
2019,04,25,00,08,5.40
2019,04,25,00,09,5.40
2019,04,25,00,10,5.40
2019,04,25,00,11,5.40
2019,04,25,00,12,5.40
2019,04,25,00,13,5.30
2019,04,25,00,14,5.30
2019,04,25,00,15,5.30
2019,04,25,00,16,5.30
2019,04,25,00,17,5.30
2019,04,25,00,18,5.30
2019,04,25,00,19,5.30
2019,04,25,00,20,5.30
2019,04,25,00,21,5.30
2019,04,25,00,22,5.30
2019,04,25,00,23,5.30
2019,04,25,00,24,5.30
2019,04,25,00,25,5.20
2019,04,25,00,26,5.20
2019,04,25,00,27,5.20
2019,04,25,00,28,5.20
2019,04,25,00,29,5.20
2019,04,25,00,30,5.20
2019,04,25,00,31,5.20
2019,04,25,00,32,5.20
2019,04,25,00,33,5.20
2019,04,25,00,34,5.20
2019,04,25,00,35,5.20
2019,04,25,00,36,5.20
2019,04,25,00,37,5.20
2019,04,25,00,38,5.20
2019,04,25,00,39,5.20
2019,04,25,00,40,5.20
2019,04,25,00,41,5.20
2019,04,25,00,42,5.20
2019,04,25,00,43,5.20
2019,04,25,00,44,5.20
2019,04,25,00,45,5.10
2019,04,25,00,46,5.20
2019,04,25,00,47,5.10
2019,04,25,00,48,5.20
2019,04,25,00,49,5.20
2019,04,25,00,50,5.20
2019,04,25,00,51,5.20
2019,04,25,00,52,5.20
2019,04,25,00,53,5.20
2019,04,25,00,54,5.20
2019,04,25,00,55,5.20
2019,04,25,00,56,5.20
2019,04,25,00,57,5.20
2019,04,25,00,58,5.20
2019,04,25,00,59,5.20
2019,04,25,01,00,5.10
2019,04,25,01,01,5.10
2019,04,25,01,02,5.10
2019,04,25,01,03,5.10
2019,04,25,01,04,5.10
2019,04,25,01,05,5.10
2019,04,25,01,06,5.10
2019,04,25,01,07,5.10
2019,04,25,01,08,5.10
2019,04,25,01,09,5.10
2019,04,25,01,10,5.10
2019,04,25,01,11,5.10
2019,04,25,01,12,5.10
2019,04,25,01,13,5.10
2019,04,25,01,14,5.10
2019,04,25,01,15,5.10
2019,04,25,01,16,5.10
2019,04,25,01,17,5.00
2019,04,25,01,18,5.00
2019,04,25,01,19,5.00
2019,04,25,01,20,5.00
2019,04,25,01,21,5.00
2019,04,25,01,22,5.00
2019,04,25,01,23,5.00
2019,04,25,01,24,5.00
2019,04,25,01,25,5.00
2019,04,25,01,26,5.00
2019,04,25,01,27,4.90
2019,04,25,01,28,4.90
2019,04,25,01,29,4.90
2019,04,25,01,30,4.90
2019,04,25,01,31,4.90
2019,04,25,01,32,4.90
2019,04,25,01,33,4.90
2019,04,25,01,34,4.90
2019,04,25,01,35,4.90
2019,04,25,01,36,4.90
2019,04,25,01,37,4.90
2019,04,25,01,38,4.80
2019,04,25,01,39,4.80
2019,04,25,01,40,4.80
2019,04,25,01,41,4.80
2019,04,25,01,42,4.80
2019,04,25,01,43,4.80
2019,04,25,01,44,4.80
2019,04,25,01,45,4.80
2019,04,25,01,46,4.80
2019,04,25,01,47,4.80
2019,04,25,01,48,4.80
2019,04,25,01,49,4.80
2019,04,25,01,50,4.80
2019,04,25,01,51,4.80
2019,04,25,01,52,4.80
2019,04,25,01,53,4.80
2019,04,25,01,54,4.80
2019,04,25,01,55,4.80
2019,04,25,01,56,4.80
2019,04,25,01,57,4.80
2019,04,25,01,58,4.80
2019,04,25,01,59,4.80
2019,04,25,02,00,4.80
2019,04,25,02,01,4.80
2019,04,25,02,02,4.70
2019,04,25,02,03,4.70
2019,04,25,02,04,4.70
2019,04,25,02,05,4.70
2019,04,25,02,06,4.70
2019,04,25,02,07,4.70
2019,04,25,02,08,4.70
2019,04,25,02,09,4.70
2019,04,25,02,10,4.70
2019,04,25,02,11,4.70
2019,04,25,02,12,4.70
2019,04,25,02,13,4.70
2019,04,25,02,14,4.70
2019,04,25,02,15,4.70
2019,04,25,02,16,4.70
2019,04,25,02,17,4.70
2019,04,25,02,18,4.70
2019,04,25,02,19,4.60
2019,04,25,02,20,4.60
2019,04,25,02,21,4.60
2019,04,25,02,22,4.60
2019,04,25,02,23,4.60
2019,04,25,02,24,4.60
2019,04,25,02,25,4.60
2019,04,25,02,26,4.60
2019,04,25,02,27,4.60
2019,04,25,02,28,4.60
2019,04,25,02,29,4.60
2019,04,25,02,30,4.60
2019,04,25,02,31,4.60
2019,04,25,02,32,4.60
2019,04,25,02,33,4.60
2019,04,25,02,34,4.60
2019,04,25,02,35,4.60
2019,04,25,02,36,4.60
2019,04,25,02,37,4.60
2019,04,25,02,38,4.60
2019,04,25,02,39,4.60
2019,04,25,02,40,4.60
2019,04,25,02,41,4.60
2019,04,25,02,42,4.60
2019,04,25,02,43,4.50
2019,04,25,02,44,4.50
2019,04,25,02,45,4.50
2019,04,25,02,46,4.50
2019,04,25,02,47,4.50
2019,04,25,02,48,4.40
2019,04,25,02,49,4.40
2019,04,25,02,50,4.40
2019,04,25,02,51,4.40
2019,04,25,02,52,4.40
2019,04,25,02,53,4.40
2019,04,25,02,54,4.40
2019,04,25,02,55,4.40
2019,04,25,02,56,4.40
2019,04,25,02,57,4.40
2019,04,25,02,58,4.40
2019,04,25,02,59,4.30
2019,04,25,03,00,4.30
2019,04,25,03,01,4.30
2019,04,25,03,02,4.30
2019,04,25,03,03,4.30
2019,04,25,03,04,4.30
2019,04,25,03,05,4.30
2019,04,25,03,06,4.30
2019,04,25,03,07,4.30
2019,04,25,03,08,4.30
2019,04,25,03,09,4.30
2019,04,25,03,10,4.20
2019,04,25,03,11,4.20
2019,04,25,03,12,4.20
2019,04,25,03,13,4.20
2019,04,25,03,14,4.20
2019,04,25,03,15,4.20
2019,04,25,03,16,4.20
2019,04,25,03,17,4.20
2019,04,25,03,18,4.20
2019,04,25,03,19,4.20
2019,04,25,03,20,4.20
2019,04,25,03,21,4.20
2019,04,25,03,22,4.20
2019,04,25,03,23,4.20
2019,04,25,03,24,4.20
2019,04,25,03,25,4.20
2019,04,25,03,26,4.20
2019,04,25,03,27,4.20
2019,04,25,03,28,4.20
2019,04,25,03,29,4.20
2019,04,25,03,30,4.20
2019,04,25,03,31,4.20
2019,04,25,03,32,4.20
2019,04,25,03,33,4.20
2019,04,25,03,34,4.20
2019,04,25,03,35,4.20
2019,04,25,03,36,4.20
2019,04,25,03,37,4.10
2019,04,25,03,38,4.10
2019,04,25,03,39,4.10
2019,04,25,03,40,4.10
2019,04,25,03,41,4.10
2019,04,25,03,42,4.10
2019,04,25,03,43,4.10
2019,04,25,03,44,4.10
2019,04,25,03,45,4.00
2019,04,25,03,46,4.00
2019,04,25,03,47,4.00
2019,04,25,03,48,4.00
2019,04,25,03,49,4.00
2019,04,25,03,50,4.00
2019,04,25,03,51,4.00
2019,04,25,03,52,4.00
2019,04,25,03,53,4.00
2019,04,25,03,54,4.00
2019,04,25,03,55,4.00
2019,04,25,03,56,4.00
2019,04,25,03,57,4.00
2019,04,25,03,58,4.00
2019,04,25,03,59,4.00
2019,04,25,04,00,4.00
2019,04,25,04,01,4.00
2019,04,25,04,02,4.00
2019,04,25,04,03,4.00
2019,04,25,04,04,4.00
2019,04,25,04,05,4.00
2019,04,25,04,06,4.00
2019,04,25,04,07,4.00
2019,04,25,04,08,4.00
2019,04,25,04,09,4.00
2019,04,25,04,10,4.00
2019,04,25,04,11,4.00
2019,04,25,04,12,4.00
2019,04,25,04,13,4.00
2019,04,25,04,14,4.00
2019,04,25,04,15,4.00
2019,04,25,04,16,4.00
2019,04,25,04,17,4.00
2019,04,25,04,18,4.00
2019,04,25,04,19,4.00
2019,04,25,04,20,4.00
2019,04,25,04,21,4.00
2019,04,25,04,22,4.00
2019,04,25,04,23,4.00
2019,04,25,04,24,4.00
2019,04,25,04,25,4.00
2019,04,25,04,26,4.00
2019,04,25,04,27,4.00
2019,04,25,04,28,4.00
2019,04,25,04,29,4.00
2019,04,25,04,30,4.00
2019,04,25,04,31,4.00
2019,04,25,04,32,4.00
2019,04,25,04,33,4.00
2019,04,25,04,34,4.00
2019,04,25,04,35,4.00
2019,04,25,04,36,4.00
2019,04,25,04,37,4.10
2019,04,25,04,38,4.10
2019,04,25,04,39,4.10
2019,04,25,04,40,4.10
2019,04,25,04,41,4.10
2019,04,25,04,42,4.10
2019,04,25,04,43,4.10
2019,04,25,04,44,4.10
2019,04,25,04,45,4.10
2019,04,25,04,46,4.10
2019,04,25,04,47,4.10
2019,04,25,04,48,4.10
2019,04,25,04,49,4.10
2019,04,25,04,50,4.10
2019,04,25,04,51,4.10
2019,04,25,04,52,4.10
2019,04,25,04,53,4.10
2019,04,25,04,54,4.10
2019,04,25,04,55,4.10
2019,04,25,04,56,4.10
2019,04,25,04,57,4.10
2019,04,25,04,58,4.10
2019,04,25,04,59,4.10
2019,04,25,05,00,4.10
2019,04,25,05,01,4.10
2019,04,25,05,02,4.10
2019,04,25,05,03,4.10
2019,04,25,05,04,4.10
2019,04,25,05,05,4.10
2019,04,25,05,06,4.10
2019,04,25,05,07,4.20
2019,04,25,05,08,4.10
2019,04,25,05,09,4.10
2019,04,25,05,10,4.10
2019,04,25,05,11,4.10
2019,04,25,05,12,4.10
2019,04,25,05,13,4.10
2019,04,25,05,14,4.10
2019,04,25,05,15,4.10
2019,04,25,05,16,4.10
2019,04,25,05,17,4.10
2019,04,25,05,18,4.20
2019,04,25,05,19,4.20
2019,04,25,05,20,4.20
2019,04,25,05,21,4.20
2019,04,25,05,22,4.20
2019,04,25,05,23,4.20
2019,04,25,05,24,4.20
2019,04,25,05,25,4.20
2019,04,25,05,26,4.20
2019,04,25,05,27,4.20
2019,04,25,05,28,4.20
2019,04,25,05,29,4.20
2019,04,25,05,30,4.20
2019,04,25,05,31,4.20
2019,04,25,05,32,4.20
2019,04,25,05,33,4.20
2019,04,25,05,34,4.20
2019,04,25,05,35,4.30
2019,04,25,05,36,4.30
2019,04,25,05,37,4.30
2019,04,25,05,38,4.30
2019,04,25,05,39,4.30
2019,04,25,05,40,4.30
2019,04,25,05,41,4.30
2019,04,25,05,42,4.30
2019,04,25,05,43,4.30
2019,04,25,05,44,4.30
2019,04,25,05,45,4.30
2019,04,25,05,46,4.30
2019,04,25,05,47,4.30
2019,04,25,05,48,4.30
2019,04,25,05,49,4.30
2019,04,25,05,50,4.30
2019,04,25,05,51,4.30
2019,04,25,05,52,4.30
2019,04,25,05,53,4.30
2019,04,25,05,54,4.30
2019,04,25,05,55,4.30
2019,04,25,05,56,4.30
2019,04,25,05,57,4.30
2019,04,25,05,58,4.30
2019,04,25,05,59,4.20
2019,04,25,06,00,4.20
2019,04,25,06,01,4.20
2019,04,25,06,02,4.20
2019,04,25,06,03,4.20
2019,04,25,06,04,4.20
2019,04,25,06,05,4.20
2019,04,25,06,06,4.10
2019,04,25,06,07,4.10
2019,04,25,06,08,4.10
2019,04,25,06,09,4.10
2019,04,25,06,10,4.10
2019,04,25,06,11,4.10
2019,04,25,06,12,4.10
2019,04,25,06,13,4.00
2019,04,25,06,14,4.00
2019,04,25,06,15,4.00
2019,04,25,06,16,4.00
2019,04,25,06,17,3.90
2019,04,25,06,18,3.90
2019,04,25,06,19,3.90
2019,04,25,06,20,3.90
2019,04,25,06,21,3.80
2019,04,25,06,22,3.80
2019,04,25,06,23,3.80
2019,04,25,06,24,3.80
2019,04,25,06,25,3.80
2019,04,25,06,26,3.70
2019,04,25,06,27,3.70
2019,04,25,06,28,3.70
2019,04,25,06,29,3.70
2019,04,25,06,30,3.70
2019,04,25,06,31,3.70
2019,04,25,06,32,3.70
2019,04,25,06,33,3.60
2019,04,25,06,34,3.70
2019,04,25,06,35,3.60
2019,04,25,06,36,3.60
2019,04,25,06,37,3.60
2019,04,25,06,38,3.60
2019,04,25,06,39,3.60
2019,04,25,06,40,3.60
2019,04,25,06,41,3.60
2019,04,25,06,42,3.60
2019,04,25,06,43,3.60
2019,04,25,06,44,3.60
2019,04,25,06,45,3.60
2019,04,25,06,46,3.60
2019,04,25,06,47,3.60
2019,04,25,06,48,3.60
2019,04,25,06,49,3.60
2019,04,25,06,50,3.60
2019,04,25,06,51,3.60
2019,04,25,06,52,3.60
2019,04,25,06,53,3.60
2019,04,25,06,54,3.60
2019,04,25,06,55,3.60
2019,04,25,06,56,3.60
2019,04,25,06,57,3.60
2019,04,25,06,58,3.60
2019,04,25,06,59,3.60
2019,04,25,07,00,3.60
2019,04,25,07,01,3.60
2019,04,25,07,02,3.60
2019,04,25,07,03,3.60
2019,04,25,07,04,3.60
2019,04,25,07,05,3.60
2019,04,25,07,06,3.70
2019,04,25,07,07,3.70
2019,04,25,07,08,3.70
2019,04,25,07,09,3.70
2019,04,25,07,10,3.70
2019,04,25,07,11,3.70
2019,04,25,07,12,3.80
2019,04,25,07,13,3.80
2019,04,25,07,14,3.80
2019,04,25,07,15,3.80
2019,04,25,07,16,3.80
2019,04,25,07,17,3.80
2019,04,25,07,18,3.80
2019,04,25,07,19,3.80
2019,04,25,07,20,3.90
2019,04,25,07,21,3.90
2019,04,25,07,22,3.90
2019,04,25,07,23,3.90
2019,04,25,07,24,3.90
2019,04,25,07,25,3.90
2019,04,25,07,26,4.00
2019,04,25,07,27,4.00
2019,04,25,07,28,4.00
2019,04,25,07,29,4.10
2019,04,25,07,30,4.10
2019,04,25,07,31,4.10
2019,04,25,07,32,4.20
2019,04,25,07,33,4.20
2019,04,25,07,34,4.20
2019,04,25,07,35,4.30
2019,04,25,07,36,4.30
2019,04,25,07,37,4.40
2019,04,25,07,38,4.40
2019,04,25,07,39,4.50
2019,04,25,07,40,4.50
2019,04,25,07,41,4.60
2019,04,25,07,42,4.60
2019,04,25,07,43,4.70
2019,04,25,07,44,4.70
2019,04,25,07,45,4.80
2019,04,25,07,46,4.90
2019,04,25,07,47,5.00
2019,04,25,07,48,5.00
2019,04,25,07,49,5.10
2019,04,25,07,50,5.20
2019,04,25,07,51,5.30
2019,04,25,07,52,5.40
2019,04,25,07,53,5.50
2019,04,25,07,54,5.50
2019,04,25,07,55,5.60
2019,04,25,07,56,5.60
2019,04,25,07,57,5.70
2019,04,25,07,58,5.70
2019,04,25,07,59,5.80
2019,04,25,08,00,5.80
2019,04,25,08,01,5.90
2019,04,25,08,02,6.00
2019,04,25,08,03,6.10
2019,04,25,08,04,6.20
2019,04,25,08,05,6.30
2019,04,25,08,06,6.30
2019,04,25,08,07,6.40
2019,04,25,08,08,6.50
2019,04,25,08,09,6.60
2019,04,25,08,10,6.70
2019,04,25,08,11,6.90
2019,04,25,08,12,7.00
2019,04,25,08,13,7.20
2019,04,25,08,14,7.30
2019,04,25,08,15,7.40
2019,04,25,08,16,7.50
2019,04,25,08,17,7.60
2019,04,25,08,18,7.70
2019,04,25,08,19,7.80
2019,04,25,08,20,7.90
2019,04,25,08,21,8.00
2019,04,25,08,22,8.10
2019,04,25,08,23,8.20
2019,04,25,08,24,8.30
2019,04,25,08,25,8.40
2019,04,25,08,26,8.50
2019,04,25,08,27,8.60
2019,04,25,08,28,8.70
2019,04,25,08,29,8.80
2019,04,25,08,30,8.90
2019,04,25,08,31,9.00
2019,04,25,08,32,9.10
2019,04,25,08,33,9.20
2019,04,25,08,34,9.30
2019,04,25,08,35,9.30
2019,04,25,08,36,9.40
2019,04,25,08,37,9.50
2019,04,25,08,38,9.60
2019,04,25,08,39,9.70
2019,04,25,08,40,9.70
2019,04,25,08,41,9.80
2019,04,25,08,42,9.90
2019,04,25,08,43,10.00
2019,04,25,08,44,10.00
2019,04,25,08,45,10.10
2019,04,25,08,46,10.10
2019,04,25,08,47,10.20
2019,04,25,08,48,10.30
2019,04,25,08,49,10.40
2019,04,25,08,50,10.40
2019,04,25,08,51,10.40
2019,04,25,08,52,10.50
2019,04,25,08,53,10.60
2019,04,25,08,54,10.60
2019,04,25,08,55,10.70
2019,04,25,08,56,10.80
2019,04,25,08,57,10.90
2019,04,25,08,58,11.00
2019,04,25,08,59,11.10
2019,04,25,09,00,11.20
2019,04,25,09,01,11.30
2019,04,25,09,02,11.40
2019,04,25,09,03,11.40
2019,04,25,09,04,11.50
2019,04,25,09,05,11.50
2019,04,25,09,06,11.50
2019,04,25,09,07,11.50
2019,04,25,09,08,11.40
2019,04,25,09,09,11.50
2019,04,25,09,10,11.50
2019,04,25,09,11,11.60
2019,04,25,09,12,11.60
2019,04,25,09,13,11.60
2019,04,25,09,14,11.60
2019,04,25,09,15,11.70
2019,04,25,09,16,11.70
2019,04,25,09,17,11.70
2019,04,25,09,18,11.70
2019,04,25,09,19,11.70
2019,04,25,09,20,11.70
2019,04,25,09,21,11.80
2019,04,25,09,22,11.80
2019,04,25,09,23,11.70
2019,04,25,09,24,11.70
2019,04,25,09,25,11.70
2019,04,25,09,26,11.70
2019,04,25,09,27,11.60
2019,04,25,09,28,11.60
2019,04,25,09,29,11.60
2019,04,25,09,30,11.60
2019,04,25,09,31,11.70
2019,04,25,09,32,11.70
2019,04,25,09,33,11.70
2019,04,25,09,34,11.70
2019,04,25,09,35,11.70
2019,04,25,09,36,11.70
2019,04,25,09,37,11.70
2019,04,25,09,38,11.80
2019,04,25,09,39,11.80
2019,04,25,09,40,11.80
2019,04,25,09,41,11.90
2019,04,25,09,42,11.90
2019,04,25,09,43,11.90
2019,04,25,09,44,12.00
2019,04,25,09,45,12.00
2019,04,25,09,46,12.00
2019,04,25,09,47,12.10
2019,04,25,09,48,12.10
2019,04,25,09,49,12.10
2019,04,25,09,50,12.20
2019,04,25,09,51,12.20
2019,04,25,09,52,12.20
2019,04,25,09,53,12.30
2019,04,25,09,54,12.20
2019,04,25,09,55,12.20
2019,04,25,09,56,12.20
2019,04,25,09,57,12.20
2019,04,25,09,58,12.10
2019,04,25,09,59,12.10
2019,04,25,10,00,12.10
2019,04,25,10,01,12.10
2019,04,25,10,02,12.00
2019,04,25,10,03,12.00
2019,04,25,10,04,12.00
2019,04,25,10,05,12.00
2019,04,25,10,06,12.00
2019,04,25,10,07,12.00
2019,04,25,10,08,12.00
2019,04,25,10,09,11.90
2019,04,25,10,10,12.00
2019,04,25,10,11,12.00
2019,04,25,10,12,12.10
2019,04,25,10,13,12.10
2019,04,25,10,14,12.20
2019,04,25,10,15,12.30
2019,04,25,10,16,12.30
2019,04,25,10,17,12.40
2019,04,25,10,18,12.40
2019,04,25,10,19,12.50
2019,04,25,10,20,12.60
2019,04,25,10,21,12.70
2019,04,25,10,22,12.70
2019,04,25,10,23,12.70
2019,04,25,10,24,12.80
2019,04,25,10,25,12.80
2019,04,25,10,26,12.90
2019,04,25,10,27,12.90
2019,04,25,10,28,12.90
2019,04,25,10,29,12.90
2019,04,25,10,30,13.00
2019,04,25,10,31,13.00
2019,04,25,10,32,13.00
2019,04,25,10,33,13.00
2019,04,25,10,34,13.00
2019,04,25,10,35,13.00
2019,04,25,10,36,13.00
2019,04,25,10,37,13.10
2019,04,25,10,38,13.00
2019,04,25,10,39,13.00
2019,04,25,10,40,13.00
2019,04,25,10,41,13.00
2019,04,25,10,42,13.00
2019,04,25,10,43,13.10
2019,04,25,10,44,13.10
2019,04,25,10,45,13.20
2019,04,25,10,46,13.20
2019,04,25,10,47,13.20
2019,04,25,10,48,13.20
2019,04,25,10,49,13.20
2019,04,25,10,50,13.30
2019,04,25,10,51,13.30
2019,04,25,10,52,13.30
2019,04,25,10,53,13.30
2019,04,25,10,54,13.30
2019,04,25,10,55,13.40
2019,04,25,10,56,13.40
2019,04,25,10,57,13.40
2019,04,25,10,58,13.40
2019,04,25,10,59,13.40
2019,04,25,11,00,13.40
2019,04,25,11,01,13.40
2019,04,25,11,02,13.40
2019,04,25,11,03,13.40
2019,04,25,11,04,13.40
2019,04,25,11,05,13.40
2019,04,25,11,06,13.30
2019,04,25,11,07,13.30
2019,04,25,11,08,13.30
2019,04,25,11,09,13.40
2019,04,25,11,10,13.40
2019,04,25,11,11,13.40
2019,04,25,11,12,13.40
2019,04,25,11,13,13.40
2019,04,25,11,14,13.50
2019,04,25,11,15,13.50
2019,04,25,11,16,13.60
2019,04,25,11,17,13.50
2019,04,25,11,18,13.50
2019,04,25,11,19,13.40
2019,04,25,11,20,13.40
2019,04,25,11,21,13.30
2019,04,25,11,22,13.30
2019,04,25,11,23,13.30
2019,04,25,11,24,13.30
2019,04,25,11,25,13.40
2019,04,25,11,26,13.40
2019,04,25,11,27,13.40
2019,04,25,11,28,13.50
2019,04,25,11,29,13.50
2019,04,25,11,30,13.50
2019,04,25,11,31,13.60
2019,04,25,11,32,13.60
2019,04,25,11,33,13.60
2019,04,25,11,34,13.60
2019,04,25,11,35,13.60
2019,04,25,11,36,13.60
2019,04,25,11,37,13.70
2019,04,25,11,38,13.70
2019,04,25,11,39,13.80
2019,04,25,11,40,13.80
2019,04,25,11,41,13.80
2019,04,25,11,42,13.80
2019,04,25,11,43,13.90
2019,04,25,11,44,13.90
2019,04,25,11,45,14.00
2019,04,25,11,46,14.00
2019,04,25,11,47,14.00
2019,04,25,11,48,14.00
2019,04,25,11,49,13.90
2019,04,25,11,50,13.90
2019,04,25,11,51,13.90
2019,04,25,11,52,13.90
2019,04,25,11,53,14.00
2019,04,25,11,54,14.00
2019,04,25,11,55,14.10
2019,04,25,11,56,14.10
2019,04,25,11,57,14.30
2019,04,25,11,58,14.40
2019,04,25,11,59,14.60
2019,04,25,12,00,14.70
2019,04,25,12,01,14.80
2019,04,25,12,02,14.90
2019,04,25,12,03,15.00
2019,04,25,12,04,15.10
2019,04,25,12,05,15.10
2019,04,25,12,06,15.10
2019,04,25,12,07,15.10
2019,04,25,12,08,15.10
2019,04,25,12,09,15.10
2019,04,25,12,10,15.10
2019,04,25,12,11,15.10
2019,04,25,12,12,15.10
2019,04,25,12,13,15.20
2019,04,25,12,14,15.30
2019,04,25,12,15,15.40
2019,04,25,12,16,15.50
2019,04,25,12,17,15.50
2019,04,25,12,18,15.60
2019,04,25,12,19,15.70
2019,04,25,12,20,15.70
2019,04,25,12,21,15.70
2019,04,25,12,22,15.70
2019,04,25,12,23,15.60
2019,04,25,12,24,15.50
2019,04,25,12,25,15.40
2019,04,25,12,26,15.30
2019,04,25,12,27,15.30
2019,04,25,12,28,15.40
2019,04,25,12,29,15.40
2019,04,25,12,30,15.40
2019,04,25,12,31,15.40
2019,04,25,12,32,15.40
2019,04,25,12,33,15.40
2019,04,25,12,34,15.30
2019,04,25,12,35,15.30
2019,04,25,12,36,15.30
2019,04,25,12,37,15.30
2019,04,25,12,38,15.30
2019,04,25,12,39,15.30
2019,04,25,12,40,15.40
2019,04,25,12,41,15.40
2019,04,25,12,42,15.50
2019,04,25,12,43,15.50
2019,04,25,12,44,15.50
2019,04,25,12,45,15.40
2019,04,25,12,46,15.30
2019,04,25,12,47,15.30
2019,04,25,12,48,15.30
2019,04,25,12,49,15.40
2019,04,25,12,50,15.50
2019,04,25,12,51,15.60
2019,04,25,12,52,15.60
2019,04,25,12,53,15.70
2019,04,25,12,54,15.80
2019,04,25,12,55,15.80
2019,04,25,12,56,15.90
2019,04,25,12,57,16.00
2019,04,25,12,58,16.00
2019,04,25,12,59,16.10
2019,04,25,13,00,16.10
2019,04,25,13,01,16.10
2019,04,25,13,02,16.00
2019,04,25,13,03,15.90
2019,04,25,13,04,15.70
2019,04,25,13,05,15.70
2019,04,25,13,06,15.60
2019,04,25,13,07,15.70
2019,04,25,13,08,15.70
2019,04,25,13,09,15.80
2019,04,25,13,10,15.80
2019,04,25,13,11,15.80
2019,04,25,13,12,15.80
2019,04,25,13,13,15.80
2019,04,25,13,14,15.70
2019,04,25,13,15,15.60
2019,04,25,13,16,15.40
2019,04,25,13,17,15.30
2019,04,25,13,18,15.30
2019,04,25,13,19,15.20
2019,04,25,13,20,15.10
2019,04,25,13,21,15.20
2019,04,25,13,22,15.20
2019,04,25,13,23,15.30
2019,04,25,13,24,15.50
2019,04,25,13,25,15.60
2019,04,25,13,26,15.70
2019,04,25,13,27,15.80
2019,04,25,13,28,15.80
2019,04,25,13,29,15.90
2019,04,25,13,30,15.90
2019,04,25,13,31,15.90
2019,04,25,13,32,15.90
2019,04,25,13,33,15.90
2019,04,25,13,34,15.90
2019,04,25,13,35,15.80
2019,04,25,13,36,15.80
2019,04,25,13,37,15.70
2019,04,25,13,38,15.50
2019,04,25,13,39,15.50
2019,04,25,13,40,15.50
2019,04,25,13,41,15.50
2019,04,25,13,42,15.60
2019,04,25,13,43,15.70
2019,04,25,13,44,15.80
2019,04,25,13,45,15.80
2019,04,25,13,46,15.80
2019,04,25,13,47,15.80
2019,04,25,13,48,15.90
2019,04,25,13,49,15.90
2019,04,25,13,50,15.90
2019,04,25,13,51,15.90
2019,04,25,13,52,15.90
2019,04,25,13,53,15.90
2019,04,25,13,54,15.90
2019,04,25,13,55,15.90
2019,04,25,13,56,15.80
2019,04,25,13,57,15.70
2019,04,25,13,58,15.70
2019,04,25,13,59,15.70
2019,04,25,14,00,15.70
2019,04,25,14,01,15.60
2019,04,25,14,02,15.60
2019,04,25,14,03,15.60
2019,04,25,14,04,15.60
2019,04,25,14,05,15.60
2019,04,25,14,06,15.60
2019,04,25,14,07,15.60
2019,04,25,14,08,15.60
2019,04,25,14,09,15.60
2019,04,25,14,10,15.60
2019,04,25,14,11,15.70
2019,04,25,14,12,15.70
2019,04,25,14,13,15.70
2019,04,25,14,14,15.80
2019,04,25,14,15,15.80
2019,04,25,14,16,15.80
2019,04,25,14,17,15.90
2019,04,25,14,18,15.90
2019,04,25,14,19,15.90
2019,04,25,14,20,16.00
2019,04,25,14,21,16.00
2019,04,25,14,22,16.10
2019,04,25,14,23,16.20
2019,04,25,14,24,16.20
2019,04,25,14,25,16.30
2019,04,25,14,26,16.30
2019,04,25,14,27,16.40
2019,04,25,14,28,16.40
2019,04,25,14,29,16.30
2019,04,25,14,30,16.30
2019,04,25,14,31,16.30
2019,04,25,14,32,16.20
2019,04,25,14,33,16.20
2019,04,25,14,34,16.20
2019,04,25,14,35,16.10
2019,04,25,14,36,16.10
2019,04,25,14,37,16.20
2019,04,25,14,38,16.20
2019,04,25,14,39,16.20
2019,04,25,14,40,16.30
2019,04,25,14,41,16.30
2019,04,25,14,42,16.30
2019,04,25,14,43,16.30
2019,04,25,14,44,16.30
2019,04,25,14,45,16.30
2019,04,25,14,46,16.30
2019,04,25,14,47,16.30
2019,04,25,14,48,16.30
2019,04,25,14,49,16.20
2019,04,25,14,50,16.20
2019,04,25,14,51,16.20
2019,04,25,14,52,16.20
2019,04,25,14,53,16.30
2019,04,25,14,54,16.30
2019,04,25,14,55,16.30
2019,04,25,14,56,16.30
2019,04,25,14,57,16.30
2019,04,25,14,58,16.30
2019,04,25,14,59,16.30
2019,04,25,15,00,16.30
2019,04,25,15,01,16.30
2019,04,25,15,02,16.30
2019,04,25,15,03,16.40
2019,04,25,15,04,16.40
2019,04,25,15,05,16.40
2019,04,25,15,06,16.40
2019,04,25,15,07,16.40
2019,04,25,15,08,16.50
2019,04,25,15,09,16.50
2019,04,25,15,10,16.60
2019,04,25,15,11,16.60
2019,04,25,15,12,16.70
2019,04,25,15,13,16.70
2019,04,25,15,14,16.70
2019,04,25,15,15,16.70
2019,04,25,15,16,16.60
2019,04,25,15,17,16.60
2019,04,25,15,18,16.60
2019,04,25,15,19,16.60
2019,04,25,15,20,16.60
2019,04,25,15,21,16.60
2019,04,25,15,22,16.60
2019,04,25,15,23,16.60
2019,04,25,15,24,16.60
2019,04,25,15,25,16.60
2019,04,25,15,26,16.60
2019,04,25,15,27,16.60
2019,04,25,15,28,16.60
2019,04,25,15,29,16.60
2019,04,25,15,30,16.50
2019,04,25,15,31,16.50
2019,04,25,15,32,16.50
2019,04,25,15,33,16.40
2019,04,25,15,34,16.40
2019,04,25,15,35,16.40
2019,04,25,15,36,16.40
2019,04,25,15,37,16.30
2019,04,25,15,38,16.30
2019,04,25,15,39,16.20
2019,04,25,15,40,16.20
2019,04,25,15,41,16.20
2019,04,25,15,42,16.20
2019,04,25,15,43,16.20
2019,04,25,15,44,16.30
2019,04,25,15,45,16.30
2019,04,25,15,46,16.30
2019,04,25,15,47,16.20
2019,04,25,15,48,16.20
2019,04,25,15,49,16.20
2019,04,25,15,50,16.10
2019,04,25,15,51,16.10
2019,04,25,15,52,16.10
2019,04,25,15,53,16.00
2019,04,25,15,54,16.00
2019,04,25,15,55,15.90
2019,04,25,15,56,15.90
2019,04,25,15,57,15.90
2019,04,25,15,58,15.90
2019,04,25,15,59,16.00
2019,04,25,16,00,16.00
2019,04,25,16,01,16.10
2019,04,25,16,02,16.10
2019,04,25,16,03,16.10
2019,04,25,16,04,16.10
2019,04,25,16,05,16.10
2019,04,25,16,06,16.20
2019,04,25,16,07,16.20
2019,04,25,16,08,16.20
2019,04,25,16,09,16.20
2019,04,25,16,10,16.20
2019,04,25,16,11,16.20
2019,04,25,16,12,16.20
2019,04,25,16,13,16.20
2019,04,25,16,14,16.20
2019,04,25,16,15,16.20
2019,04,25,16,16,16.20
2019,04,25,16,17,16.20
2019,04,25,16,18,16.10
2019,04,25,16,19,16.10
2019,04,25,16,20,16.10
2019,04,25,16,21,16.10
2019,04,25,16,22,16.10
2019,04,25,16,23,16.10
2019,04,25,16,24,16.10
2019,04,25,16,25,16.10
2019,04,25,16,26,16.10
2019,04,25,16,27,16.00
2019,04,25,16,28,16.00
2019,04,25,16,29,16.00
2019,04,25,16,30,15.90
2019,04,25,16,31,15.90
2019,04,25,16,32,15.90
2019,04,25,16,33,15.90
2019,04,25,16,34,15.90
2019,04,25,16,35,15.90
2019,04,25,16,36,15.80
2019,04,25,16,37,15.80
2019,04,25,16,38,15.80
2019,04,25,16,39,15.80
2019,04,25,16,40,15.80
2019,04,25,16,41,15.80
2019,04,25,16,42,15.80
2019,04,25,16,43,15.80
2019,04,25,16,44,15.80
2019,04,25,16,45,15.80
2019,04,25,16,46,15.80
2019,04,25,16,47,15.80
2019,04,25,16,48,15.80
2019,04,25,16,49,15.80
2019,04,25,16,50,15.80
2019,04,25,16,51,15.80
2019,04,25,16,52,15.80
2019,04,25,16,53,15.80
2019,04,25,16,54,15.80
2019,04,25,16,55,15.70
2019,04,25,16,56,15.70
2019,04,25,16,57,15.70
2019,04,25,16,58,15.70
2019,04,25,16,59,15.60
2019,04,25,17,00,15.60
2019,04,25,17,01,15.60
2019,04,25,17,02,15.60
2019,04,25,17,03,15.50
2019,04,25,17,04,15.50
2019,04,25,17,05,15.50
2019,04,25,17,06,15.50
2019,04,25,17,07,15.50
2019,04,25,17,08,15.40
2019,04,25,17,09,15.40
2019,04,25,17,10,15.40
2019,04,25,17,11,15.30
2019,04,25,17,12,15.30
2019,04,25,17,13,15.30
2019,04,25,17,14,15.30
2019,04,25,17,15,15.30
2019,04,25,17,16,15.30
2019,04,25,17,17,15.30
2019,04,25,17,18,15.40
2019,04,25,17,19,15.30
2019,04,25,17,20,15.30
2019,04,25,17,21,15.30
2019,04,25,17,22,15.20
2019,04,25,17,23,15.20
2019,04,25,17,24,15.20
2019,04,25,17,25,15.10
2019,04,25,17,26,15.10
2019,04,25,17,27,15.00
2019,04,25,17,28,15.00
2019,04,25,17,29,14.90
2019,04,25,17,30,14.90
2019,04,25,17,31,14.90
2019,04,25,17,32,14.90
2019,04,25,17,33,14.90
2019,04,25,17,34,14.90
2019,04,25,17,35,14.90
2019,04,25,17,36,14.90
2019,04,25,17,37,14.80
2019,04,25,17,38,14.80
2019,04,25,17,39,14.80
2019,04,25,17,40,14.80
2019,04,25,17,41,14.80
2019,04,25,17,42,14.80